Location: Newark
(48.8656°N, 2.3211°E)
Time: 07:24:56
(UTC+00:00)

Envisat - Pass Details

Date: 28 February 2019
Orbit: 764 x 766 km, 98.2° (Epoch: 24 March)

Event Time Altitude Azimuth Distance (km) Brightness Sun altitude
Rises 18:54:34 0° 182° (S) 3,221 6.2 -14.3°
Reaches altitude 10° 18:56:58 10° 189° (S) 2,299 5.5 -14.7°
Maximum altitude 19:01:49 45° 262° (W) 1,041 4.2 -15.5°
Drops below altitude 10° 19:06:42 10° 335° (NNW) 2,315 5.9 -16.3°
Sets 19:09:07 0° 342° (NNW) 3,246 6.6 -16.7°
